Cameron, WI

6:30 AM CST on February 12, 2016 (GMT -0600)
Rice Lake Regional-Carl's

Weather History for KRPD - March, 2012

Change the Weather History Date:

Tuesday, March 20, 2012

  Actual Average Record
Temperature  
Mean Temperature 60 °F -  
Max Temperature 66 °F - - ()
Min Temperature 53 °F - - ()
Degree Days  
Heating Degree Days 6    
Growing Degree Days 10 (Base 50)    
Moisture  
Dew Point 54 °F    
Average Humidity 82    
Maximum Humidity 100    
Minimum Humidity 60    
Precipitation  
Precipitation 0.00 in - - ()
Sea Level Pressure  
Sea Level Pressure 29.90 in    
Wind  
Wind Speed 5 mph (South)    
Max Wind Speed 10 mph    
Max Gust Speed -    
Visibility 9 miles    
Events Rain    
T = Trace of Precipitation, MM = Missing Value Source: NWS Daily Summary

Daily Weather History Graph

Daily Weather History Graph

Search for Another Location

Airport or City:

Trip Planner

Search our weather history database for the weather conditions in past years. The results will help you decide how hot, cold, wet, or windy it might be!

Date:

Astronomy

Mar. 20, 2012 Rise Set
Actual Time 7:09 AM CDT 7:20 PM CDT
Civil Twilight 6:39 AM CDT 7:49 PM CDT
Nautical Twilight 6:05 AM CDT 8:24 PM CDT
Astronomical Twilight 5:29 AM CDT 9:00 PM CDT
Moon 5:55 AM CDT (3/20) 5:46 PM CDT (3/20)
Length of Visible Light 13h 10m
Length of Day
12h 11m
Waning Crescent, 4% of the Moon is Illuminated
Mar 20
Waning Crescent
Mar 22
New
Mar 30
First Quarter
Apr 6
Full
Apr 13
Last Quarter

Hourly Weather History & Observations

Time (CDT) Temp. Dew Point Humidity Pressure Visibility Wind Dir Wind Speed Gust Speed Precip Events Conditions
4:35 AM 59.0 °F 57.2 °F 94% 29.81 in 10.0 mi SSE 4.6 mph - N/A   Mostly Cloudy
4:55 AM 59.0 °F 57.2 °F 94% 29.81 in 10.0 mi South 4.6 mph - N/A   Mostly Cloudy
5:15 AM 59.0 °F 57.2 °F 94% 29.81 in 10.0 mi SE 5.8 mph - N/A   Mostly Cloudy
5:35 AM 59.0 °F 55.4 °F 88% 29.82 in 7.0 mi SE 6.9 mph - N/A   Clear
5:55 AM 59.0 °F 55.4 °F 88% 29.82 in 10.0 mi SE 6.9 mph - N/A   Clear
6:15 AM 59.0 °F 55.4 °F 88% 29.82 in 10.0 mi SE 8.1 mph - N/A   Clear
6:35 AM 57.2 °F 55.4 °F 94% 29.81 in 10.0 mi SE 6.9 mph - N/A   Clear
6:55 AM 55.4 °F 55.4 °F 100% 29.83 in 7.0 mi SSE 6.9 mph - N/A   Clear
7:15 AM 55.4 °F 55.4 °F 100% 29.83 in 5.0 mi Calm Calm - N/A   Mostly Cloudy
7:35 AM 55.4 °F 55.4 °F 100% 29.83 in 7.0 mi SSE 5.8 mph - N/A   Overcast
7:55 AM 57.2 °F 55.4 °F 94% 29.84 in 10.0 mi SE 4.6 mph - N/A   Overcast
8:15 AM 57.2 °F 55.4 °F 94% 29.84 in 10.0 mi SE 5.8 mph - N/A   Scattered Clouds
8:55 AM 59.0 °F 57.2 °F 94% 29.85 in 10.0 mi SE 6.9 mph - N/A   Clear
9:15 AM 60.8 °F 59.0 °F 94% 29.84 in 10.0 mi SSE 8.1 mph - N/A   Clear
9:35 AM 60.8 °F 55.4 °F 82% 29.85 in 10.0 mi South 8.1 mph - N/A   Scattered Clouds
9:55 AM 62.6 °F 55.4 °F 77% 29.86 in 10.0 mi SSE 10.4 mph - N/A   Scattered Clouds
10:15 AM 62.6 °F 55.4 °F 77% 29.86 in 10.0 mi South 9.2 mph - N/A   Scattered Clouds
10:55 AM 62.6 °F 53.6 °F 72% 29.88 in 10.0 mi South 8.1 mph - N/A   Overcast
11:15 AM 64.4 °F 55.4 °F 73% 29.87 in 10.0 mi SSW 9.2 mph - N/A   Overcast
11:35 AM 64.4 °F 53.6 °F 68% 29.87 in 10.0 mi South 9.2 mph - N/A   Mostly Cloudy
12:15 PM 64.4 °F 53.6 °F 68% 29.89 in 10.0 mi South 10.4 mph - N/A   Mostly Cloudy
12:35 PM 64.4 °F 53.6 °F 68% 29.88 in 10.0 mi South 8.1 mph - N/A   Overcast
12:55 PM 66.2 °F 51.8 °F 60% 29.89 in 10.0 mi SW 9.2 mph - N/A   Overcast
1:15 PM 64.4 °F 51.8 °F 64% 29.90 in 10.0 mi SSW 9.2 mph - N/A   Overcast
1:35 PM 64.4 °F 51.8 °F 64% 29.90 in 10.0 mi SSW 9.2 mph - N/A   Overcast
2:15 PM 62.6 °F 51.8 °F 68% 29.90 in 10.0 mi SSW 6.9 mph - N/A   Overcast
2:35 PM 62.6 °F 51.8 °F 68% 29.90 in 10.0 mi SSW 5.8 mph - N/A   Overcast
2:55 PM 62.6 °F 51.8 °F 68% 29.91 in 10.0 mi SW 4.6 mph - N/A   Overcast
3:15 PM 62.6 °F 51.8 °F 68% 29.91 in 10.0 mi SSW 3.5 mph - N/A   Overcast
3:35 PM 62.6 °F 51.8 °F 68% 29.91 in 10.0 mi WSW 3.5 mph - N/A   Overcast
3:55 PM 62.6 °F 51.8 °F 68% 29.92 in 10.0 mi Calm Calm - N/A   Overcast
4:15 PM 62.6 °F 51.8 °F 68% 29.92 in 10.0 mi Calm Calm - N/A   Overcast
4:35 PM 62.6 °F 51.8 °F 68% 29.92 in 10.0 mi Calm Calm - N/A   Overcast
4:55 PM 62.6 °F 51.8 °F 68% 29.92 in 10.0 mi Calm Calm - N/A   Overcast
5:15 PM 62.6 °F 51.8 °F 68% 29.92 in 10.0 mi Calm Calm - N/A   Overcast
5:35 PM 62.6 °F 51.8 °F 68% 29.92 in 10.0 mi Calm Calm - N/A   Overcast
5:55 PM 60.8 °F 51.8 °F 72% 29.92 in 10.0 mi Calm Calm - N/A   Overcast
6:15 PM 60.8 °F 53.6 °F 77% 29.93 in 10.0 mi ESE 4.6 mph - N/A   Overcast
6:35 PM 60.8 °F 53.6 °F 77% 29.93 in 10.0 mi ESE 3.5 mph - N/A   Overcast
6:55 PM 60.8 °F 53.6 °F 77% 29.94 in 10.0 mi Calm Calm - N/A   Overcast
7:15 PM 59.0 °F 53.6 °F 82% 29.94 in 10.0 mi Calm Calm - N/A   Overcast
7:35 PM 59.0 °F 53.6 °F 82% 29.94 in 10.0 mi Calm Calm - N/A   Mostly Cloudy
7:55 PM 55.4 °F 53.6 °F 94% 29.95 in 10.0 mi Calm Calm - N/A   Scattered Clouds
8:15 PM 55.4 °F 53.6 °F 94% 29.94 in 10.0 mi Calm Calm - N/A   Overcast
8:35 PM 53.6 °F 51.8 °F 94% 29.95 in 10.0 mi Calm Calm - N/A   Mostly Cloudy
8:55 PM 53.6 °F 51.8 °F 94% 29.95 in 7.0 mi Calm Calm - N/A   Overcast
9:15 PM 53.6 °F 51.8 °F 94% 29.95 in 7.0 mi Calm Calm - N/A   Overcast
9:35 PM 53.6 °F 53.6 °F 100% 29.96 in 7.0 mi Calm Calm - N/A   Overcast
9:55 PM 53.6 °F 51.8 °F 94% 29.97 in 7.0 mi Calm Calm - N/A   Overcast
10:15 PM 53.6 °F 51.8 °F 94% 29.97 in 5.0 mi Calm Calm - N/A   Overcast
10:35 PM 53.6 °F 51.8 °F 94% 29.97 in 5.0 mi Calm Calm - N/A   Overcast
10:55 PM 53.6 °F 51.8 °F 94% 29.97 in 7.0 mi Calm Calm - N/A   Overcast
11:15 PM 53.6 °F 51.8 °F 94% 29.97 in 7.0 mi Calm Calm - N/A   Mostly Cloudy
11:35 PM 53.6 °F 51.8 °F 94% 29.97 in 7.0 mi Calm Calm - N/A Rain Light Rain
11:55 PM 53.6 °F 51.8 °F 94% 29.97 in 4.0 mi Calm Calm - N/A Rain Light Rain